Location: ???????
(56.2167°N, 38.0500°E)
Time: 13:58:10
(UTC+00:00)

Cosmos 1703 - Pass Details

Date: 19 May 2025
Orbit: 444 x 453 km, 82.5° (Epoch: 20 June)

Event Time Altitude Azimuth Distance (km) Brightness Sun altitude
Exits shadow 23:47:17 - 182° (S) 1,791 5.4 -8.1°
Reaches altitude 10° 23:47:47 10° 181° (S) 1,583 5.2 -8.0°
Maximum altitude 23:51:12 65° 99° (E) 504 3.2 -7.7°
Drops below altitude 10° 23:54:41 10° 17° (NNE) 1,604 7.1 -7.5°
Sets 23:56:46 0° 15° (NNE) 2,486 8.2 -7.3°
